Satellite: NOAA-17
Catalog number: 27453
Epoch time:      11292.65905608
Element set:    0455
Inclination:      098.3666 deg
RA of node:       326.5758 deg
Eccentricity:    0.0012285
Arg of perigee:   141.1561 deg
Mean anomaly:     219.0506 deg
Mean motion:   14.24328068 rev/day
Decay rate:       1.02e-06 rev/day^2
Epoch rev:           48437
Checksum:              308

Satellite: NOAA-18
Catalog number: 28654
Epoch time:      11292.64620505
Element set:    0933
Inclination:      099.0123 deg
RA of node:       244.1852 deg
Eccentricity:    0.0015112
Arg of perigee:   113.7695 deg
Mean anomaly:     246.5074 deg
Mean motion:   14.11530600 rev/day
Decay rate:       4.29e-06 rev/day^2
Epoch rev:           33048
Checksum:              276

Satellite: NOAA-19
Catalog number: 33591
Epoch time:      11292.67098614
Element set:    0124
Inclination:      098.8375 deg
RA of node:       230.7869 deg
Eccentricity:    0.0013970
Arg of perigee:   347.5544 deg
Mean anomaly:     012.5256 deg
Mean motion:   14.11222571 rev/day
Decay rate:       5.54e-06 rev/day^2
Epoch rev:           13894
Checksum:              317

/EX
SB KEPS @ AMSAT  $ORB11293.M
Orbital Elements  11293.MISC

HR AMSAT ORBITAL ELEMENTS FOR MANNED AND MISCELLANEOUS SATELLITES
FROM WA5QGD FORT WORTH,TX October 20, 2011
Send Subscribe/unsubscribe to KEPS at http://www.amsat.org/mailman/listinfo/kep
BID: ORB11293.M
TO ALL RADIO AMATEURS BT

Satellite: HUBBLE
Catalog number: 20580
Epoch time:      11292.35114966
Element set:    0854
Inclination:      028.4708 deg
RA of node:       285.2475 deg
Eccentricity:    0.0003015
Arg of perigee:   005.0192 deg
Mean anomaly:     355.0835 deg
Mean motion:   15.01644613 rev/day
Decay rate:      2.871e-05 rev/day^2
Epoch rev:           97833
Checksum:              286

Satellite: ISS
Catalog number: 25544
Epoch time:      11292.96119193
Element set:    0272
Inclination:      051.6398 deg
RA of node:       252.6197 deg
Eccentricity:    0.0019187
Arg of perigee:   333.4224 deg
Mean anomaly:     098.8584 deg
Mean motion:   15.59806961 rev/day
Decay rate:     2.3594e-04 rev/day^2
Epoch rev:           74039
Checksum:              341

Satellite: CO-58
Catalog number: 28895
Epoch time:      11292.64690769
Element set:       2
Inclination:      097.9472 deg
RA of node:       164.0979 deg
Eccentricity:    0.0017678
Arg of perigee:   186.2705 deg
Mean anomaly:     173.8269 deg
Mean motion:   14.60228535 rev/day
Decay rate:      1.204e-05 rev/day^2
Epoch rev:           31840
Checksum:              345

Satellite: FALCON
Catalog number: 30776
Epoch time:      11292.50589563
Element set:     196
Inclination:      035.4334 deg
RA of node:       310.8019 deg
Eccentricity:    0.0001389
Arg of perigee:   068.0135 deg
Mean anomaly:     292.0728 deg
Mean motion:   15.05275862 rev/day
Decay rate:      5.521e-05 rev/day^2
Epoch rev:           25378
Checksum:              300

Satellite: MAST
Catalog number: 31126
Epoch time:      11293.64443729
Element set:     288
Inclination:      097.8877 deg
RA of node:       313.7389 deg
Eccentricity:    0.0094986
Arg of perigee:   139.6192 deg
Mean anomaly:     221.2081 deg
Mean motion:   14.53841895 rev/day
Decay rate:       7.62e-06 rev/day^2
Epoch rev:           23931
Checksum:              339

Satellite: CAPE1
Catalog number: 31130
Epoch time:      11293.81548469
Element set:     300
Inclination:      097.8922 deg
RA of node:       310.4931 deg
Eccentricity:    0.0102742
Arg of perigee:   150.4490 deg
Mean anomaly:     210.2550 deg
Mean motion:   14.52513096 rev/day
Decay rate:       5.68e-06 rev/day^2
Epoch rev:           23887
Checksum:              277

Satellite: COMPASS
Catalog number: 32787
Epoch time:      11292.66597363
Element set:    0122
Inclination:      097.8348 deg
RA of node:       354.0904 deg
Eccentricity:    0.0016352
Arg of perigee:   127.3195 deg
Mean anomaly:     232.9551 deg
Mean motion:   14.82779459 rev/day
Decay rate:      3.248e-05 rev/day^2
Epoch rev:           18800
Checksum:              326

Satellite: AAUSAT2
Catalog number: 32788
Epoch time:      11292.61325061
Element set:    0114
Inclination:      097.8345 deg
RA of node:       354.3056 deg
Eccentricity:    0.0016317
Arg of perigee:   128.1236 deg
Mean anomaly:     232.1450 deg
Mean motion:   14.82995502 rev/day
Decay rate:      4.074e-05 rev/day^2
Epoch rev:           18801
Checksum:              281

Satellite: DO-64
Catalog number: 32789
Epoch time:      11293.25120120
Element set:     127
Inclination:      097.8446 deg
RA of node:       356.1925 deg
Eccentricity:    0.0016004
Arg of perigee:   124.7018 deg
Mean anomaly:     235.5704 deg
Mean motion:   14.83683276 rev/day
Decay rate:      5.353e-05 rev/day^2
Epoch rev:           18812
Checksum:              300

Satellite: CO-66
Catalog number: 32791
Epoch time:      11293.72291200
Element set:     116
Inclination:      097.8365 deg
RA of node:       355.0217 deg
Eccentricity:    0.0016890
Arg of perigee:   123.7601 deg
Mean anomaly:     236.5226 deg
Mean motion:   14.82415369 rev/day
Decay rate:      2.321e-05 rev/day^2
Epoch rev:           18810
Checksum:              290

